Russellville, AR

5:29 AM CDT on October 16, 2019 (GMT -0500)
Russellville Regional

Weather History for KRUE - August, 2019

Change the Weather History Date:

Friday, August 23, 2019

  Actual Average (WUND) Record (WUND)
Temperature  
Mean Temperature 76 °F -  
Max Temperature 84 °F - - (-1)
Min Temperature 71 °F - - (-1)
Cooling Degree Days 12    
Growing Degree Days 26 (Base 50)    
Moisture  
Dew Point 70 °F    
Average Humidity 85    
Maximum Humidity 94    
Minimum Humidity 67    
Precipitation  
Precipitation 0.09 in - - ()
Sea Level Pressure  
Sea Level Pressure 29.97 in    
Wind  
Wind Speed 4 mph (NE)    
Max Wind Speed 7 mph    
Max Gust Speed 16 mph    
Visibility 10 miles    
Events Rain    
Averages and records for this station are not official NWS values.
T = Trace of Precipitation, MM = Missing Value Source: NWS Daily Summary

Daily Weather History Graph

Daily Weather History Graph

Search for Another Location

Airport or City:

Astronomy

Aug. 23, 2019 Rise Set
Actual Time 6:37 AM CDT 7:51 PM CDT
Civil Twilight 6:11 AM CDT 8:17 PM CDT
Nautical Twilight 5:39 AM CDT 8:49 PM CDT
Astronomical Twilight 5:07 AM CDT 9:21 PM CDT
Moon No Moon Rise 1:58 PM CDT (8/23)
Length of Visible Light 14h 06m
Length of Day
13h 13m
Waning Gibbous, 49% of the Moon is Illuminated
Aug 23
Waning Gibbous
Aug 30
New
Sep 5
First Quarter
Sep 13
Full
Sep 21
Last Quarter

Hourly Weather History & Observations

Time (CDT) Temp. Heat Index Dew Point Humidity Pressure Visibility Wind Dir Wind Speed Gust Speed Precip Events Conditions
12:31 AM 71.1 °F - 69.1 °F 93% 29.98 in 10.0 mi WSW 5.8 mph - 0.03 in Rain Light Rain
12:53 AM 71.1 °F - 69.1 °F 93% 29.95 in 10.0 mi West 3.5 mph - 0.03 in   Clear
1:53 AM 71.1 °F - 69.1 °F 93% 29.93 in 10.0 mi West 5.8 mph - N/A   Scattered Clouds
2:42 AM 72.0 °F - 70.0 °F 93% 29.97 in 10.0 mi North - - N/A   Scattered Clouds
2:53 AM 72.0 °F - 70.0 °F 93% 29.94 in 10.0 mi NNW 5.8 mph - N/A   Mostly Cloudy
3:06 AM 72.0 °F - 69.1 °F 91% 29.96 in 10.0 mi NNW 6.9 mph - N/A   Overcast
3:51 AM 71.6 °F - 69.8 °F 94% 29.99 in 10.0 mi WNW 4.6 mph - N/A   Mostly Cloudy
3:53 AM 72.0 °F - 69.1 °F 91% 29.96 in 10.0 mi NW 3.5 mph - N/A   Mostly Cloudy
4:53 AM 71.1 °F - 69.1 °F 93% 29.96 in 10.0 mi Calm Calm - N/A   Clear
5:53 AM 71.1 °F - 69.1 °F 93% 29.95 in 10.0 mi Calm Calm - N/A   Clear
6:53 AM 72.0 °F - 69.1 °F 91% 29.96 in 10.0 mi NW 3.5 mph - N/A   Clear
7:53 AM 73.0 °F - 69.1 °F 87% 29.97 in 10.0 mi Calm Calm - N/A   Clear
8:37 AM 73.0 °F - 70.0 °F 90% 30.01 in 10.0 mi East 4.6 mph - N/A   Partly Cloudy
8:53 AM 73.0 °F - 70.0 °F 90% 29.99 in 10.0 mi East 3.5 mph - N/A   Partly Cloudy
9:53 AM 73.9 °F - 70.0 °F 87% 30.01 in 10.0 mi Calm Calm - N/A   Overcast
11:53 AM 78.1 °F - 70.0 °F 76% 30.01 in 10.0 mi Calm Calm - N/A   Overcast
12:53 PM 78.1 °F - 69.1 °F 74% 30.01 in 10.0 mi Variable 3.5 mph - N/A   Overcast
1:18 PM 79.0 °F - 70.0 °F 74% 30.02 in 10.0 mi Variable 4.6 mph - N/A   Overcast
1:53 PM 80.1 °F 83.2 °F 70.0 °F 71% 29.99 in 10.0 mi ENE 5.8 mph - N/A   Overcast
2:53 PM 82.0 °F 86.3 °F 71.1 °F 69% 29.97 in 10.0 mi ENE 5.8 mph - N/A   Mostly Cloudy
3:53 PM 82.9 °F 87.5 °F 71.1 °F 67% 29.94 in 10.0 mi East 6.9 mph 16.1 mph N/A   Overcast
4:53 PM 82.9 °F 87.5 °F 71.1 °F 67% 29.94 in 10.0 mi East 4.6 mph - N/A   Overcast
5:53 PM 81.0 °F 85.2 °F 72.0 °F 74% 29.93 in 10.0 mi East 5.8 mph - N/A   Overcast
6:53 PM 81.0 °F 84.9 °F 71.1 °F 72% 29.93 in 10.0 mi NE 6.9 mph - N/A   Mostly Cloudy
7:53 PM 75.9 °F - 73.0 °F 91% 29.95 in 3.0 mi East 3.5 mph - 0.05 in Rain Rain
8:53 PM 75.9 °F - 73.0 °F 91% 29.95 in 10.0 mi Calm Calm - 0.01 in   Mostly Cloudy
9:53 PM 75.9 °F - 72.0 °F 87% 29.96 in 10.0 mi ENE 4.6 mph - N/A   Partly Cloudy
10:53 PM 77.0 °F - 72.0 °F 84% 29.97 in 10.0 mi East 5.8 mph - N/A   Scattered Clouds
11:53 PM 75.9 °F - 72.0 °F 87% 29.96 in 10.0 mi East 5.8 mph - N/A   Scattered Clouds